Weather in Kamoke

Pakistan     31°58′10″N   74°13′21″E
temp.,
°C
wind,
m/s
gust,
m/s
humid.,
%
clouds,
%
prec.,
mm/h
press.,
hPa
HPBL,
m
13 june, sun
sun1323:00+33se78412 0.2 997804
02:00+31e47440 0.3 998334
05:00+30ese485210 1.5 998449
08:00+34ese44433 0.4 10001125
11:00+39ese443116 0.4 9981783
14:00+35ne8103559 0.9 997447
17:00+34wsw101038100 0.9 994615
20:00+32wsw81033100 0.1 996622
14 june, mon
mon1423:00+29s584955 0.1 996378
02:00+29ne35484 0.0 996232
05:00+29e25510 0.0 996163
08:00+33se56364 0.0 998839
11:00+38ne33275 0.1 9972160
14:00+41nne32221 0.0 9933015
17:00+41nnw432011 0.0 9913375
20:00+38n47230 0.0 991263
15 june, tue
tue1523:00+35e36270 0.1 992150
02:00+33se36340 0.1 992163
05:00+32ene47380 0.3 992161
08:00+36ese67320 0.0 993939
11:00+34nw9938100 1.8 9921661
14:00+24wnw3672100 10.1 996684
17:00+26ene676498 12.1 994579
20:00+25ene71069100 0.0 994616
16 june, wed
wed1623:00+26e7126494 0.0 995531
02:00+26ese286724 0.1 996317
05:00+24e12720 0.8 99853
08:00+28ene23562 0.6 999282
11:00+32ese224517 2.5 9991421
14:00+36s223671 0.0 9961823
17:00+37wsw11315 0.0 9952143
20:00+34wsw344025 0.1 995146
17 june, thu
thu1723:00+33nnw224280 0.1 99623
02:00+32nnw224624 0.0 99643
05:00+29e365642 1.3 996172
08:00+32ene463260 3.8 998394
11:00+35ne22280 3.8 998952
14:00+39sse02210 0.0 9962586
17:00+39e12190 0.0 9942958
20:00+36ese33260 0.0 99648